Theta_e
329 322 325 321 310 310 307 308 313 314 313 315 315 312 311 314 320 318 346 358 359 362 368 365 366 368 368 367 364 363 363 363 363 362 361 361 362 363 365 364 364 364 363 363 362 360 357 357 356
323 321 322 316 306 305 308 310 309 312 311 314 314 313 313 318 328 331 337 353 362 362 369 365 365 367 367 366 364 363 363 363 363 361 361 361 362 364 364 365 365 365 363 362 361 358 357 356 356
321 325 315 309 306 305 308 309 309 310 312 312 312 315 313 324 331 333 340 355 362 364 369 366 365 366 366 366 364 364 363 363 362 361 361 361 362 363 363 364 365 365 363 362 360 357 357 356 356
319 318 314 304 302 305 305 307 309 309 311 313 314 310 319 332 324 324 327 352 359 363 367 364 363 365 366 366 365 364 364 363 362 361 361 362 363 362 363 364 365 365 364 361 359 358 358 357 357
318 314 307 304 303 305 307 309 309 309 310 311 313 311 314 322 327 324 328 345 356 362 365 366 363 364 365 366 365 364 363 362 361 361 362 362 362 362 363 364 365 365 365 362 359 359 359 358 357
311 313 303 302 304 304 308 311 310 310 311 312 311 311 314 331 322 322 338 346 357 361 364 365 362 363 363 364 364 363 362 362 361 361 361 362 362 362 363 364 364 364 364 362 359 358 358 357 355
309 307 304 303 302 304 307 311 309 309 310 310 313 309 315 319 322 323 333 348 356 361 362 364 361 361 362 363 362 362 361 361 361 360 361 361 362 362 363 363 363 363 362 361 359 357 355 354 353
313 309 303 304 303 303 308 309 310 309 308 314 314 308 311 318 321 322 323 339 350 359 362 362 361 356 356 360 362 362 361 361 360 361 361 361 361 362 362 361 362 363 362 360 357 355 354 352 351
312 305 302 302 302 305 309 306 310 312 309 311 313 313 316 318 320 320 321 324 343 352 359 361 360 356 353 350 358 361 361 362 360 361 360 359 355 360 363 358 362 362 360 359 358 356 354 352 350
308 304 302 306 305 305 306 306 306 305 306 307 309 313 314 316 317 317 318 319 322 340 354 358 360 357 354 347 352 356 357 359 359 358 361 356 353 355 354 358 362 361 359 358 357 355 352 350 344
306 303 305 304 305 305 304 304 306 304 303 306 305 308 312 314 315 316 318 320 321 324 346 357 361 360 356 350 351 349 349 350 353 356 359 357 350 353 352 355 358 359 359 354 354 354 350 344 343
301 302 303 303 304 304 303 305 304 304 305 308 308 310 311 312 313 314 315 318 320 323 332 352 359 360 360 354 351 350 346 347 348 351 357 355 349 352 351 351 354 354 352 352 351 348 350 349 345
302 302 303 304 304 304 304 302 303 303 306 308 308 309 309 311 312 314 316 318 320 322 326 348 358 360 362 360 353 351 348 347 348 350 355 350 350 351 351 351 351 352 352 351 351 349 351 349 343
302 302 303 303 304 304 302 302 303 305 308 307 307 307 309 310 311 312 314 316 319 323 325 331 357 358 357 361 361 354 352 352 350 349 351 352 351 352 349 350 350 351 351 351 350 349 350 347 341
302 299 301 302 302 302 303 300 301 305 307 305 306 308 308 309 311 311 313 315 318 320 323 327 339 359 358 359 360 357 353 351 350 349 352 352 352 352 354 348 348 349 352 353 352 351 351 345 342
299 300 297 302 302 301 300 296 303 307 306 305 306 307 308 309 310 312 313 315 318 319 320 323 327 351 358 363 360 357 354 352 351 350 351 351 350 352 352 346 347 349 351 350 348 348 344 341 339
299 295 296 297 302 300 299 297 303 307 306 305 306 307 307 309 310 312 313 314 316 318 321 322 328 336 359 358 361 360 362 355 352 352 352 353 350 348 350 345 346 353 348 347 346 345 343 339 339
294 295 296 296 300 301 299 299 304 306 305 304 305 309 311 311 312 314 314 317 321 324 327 328 329 336 358 355 358 356 356 355 353 351 352 355 351 350 350 346 348 350 346 345 345 348 343 339 339
296 295 295 299 301 298 299 299 302 304 303 304 308 309 310 311 314 317 319 321 323 325 327 329 330 337 343 358 348 350 351 355 353 353 355 354 354 352 354 347 348 351 347 349 349 346 346 338 344
296 295 296 299 300 299 299 299 302 301 304 306 306 307 308 309 311 313 316 318 319 322 326 329 330 332 337 354 353 352 351 355 354 354 358 358 354 354 352 352 350 351 342 349 349 350 341 338 345
297 296 296 295 298 301 298 297 298 302 304 306 307 308 308 308 308 311 313 315 318 319 322 326 329 332 333 354 352 351 351 350 352 354 354 355 354 352 353 352 350 350 346 341 350 350 352 336 342
294 298 297 296 295 292 299 290 297 300 301 304 306 307 307 308 309 309 311 313 315 318 321 324 327 330 331 353 348 346 345 345 347 353 353 353 356 353 352 353 350 352 344 343 349 350 350 348 341
295 299 297 297 295 295 294 291 296 300 298 302 304 305 306 307 307 307 308 312 312 316 316 319 324 331 334 353 350 346 345 348 352 350 352 354 357 356 352 355 356 355 348 348 353 356 354 346 344
299 299 300 297 295 290 294 291 294 300 299 300 302 304 305 306 307 308 309 311 311 312 315 316 320 324 327 348 348 347 345 345 347 350 347 348 350 353 355 352 356 356 353 352 354 358 356 354 352
299 297 293 290 290 290 294 292 295 300 302 300 301 304 306 307 307 307 306 307 309 307 311 313 316 318 317 319 346 345 346 346 351 356 350 351 348 348 353 351 355 353 356 354 356 360 357 355 352
295 296 292 282 287 290 296 290 297 302 303 303 304 305 305 305 306 306 307 307 307 306 308 311 313 315 314 314 319 347 354 348 349 353 353 350 348 349 352 350 354 354 353 353 356 351 351 355 353
296 295 297 289 292 287 293 296 300 302 302 302 303 303 303 303 304 305 306 307 307 307 307 310 312 314 314 312 314 322 348 346 349 346 349 348 355 348 345 350 349 353 353 353 355 348 352 355 355
297 300 289 291 284 284 291 292 294 298 300 301 302 302 302 303 303 303 305 306 307 308 308 311 311 313 314 314 313 315 321 348 344 345 345 348 354 352 352 350 350 350 351 351 354 350 353 353 352
296 293 293 293 291 285 285 292 301 299 300 300 301 301 301 301 301 302 303 305 306 307 307 309 310 311 314 314 314 315 317 323 345 335 336 344 353 352 350 350 350 349 350 352 354 353 349 348 352
298 296 295 288 285 289 287 288 302 302 301 301 301 301 301 301 301 302 303 303 304 305 306 307 309 309 313 315 315 317 317 320 330 337 330 339 349 351 350 351 350 349 347 349 350 346 344 345 347
Wind_Speed
9 6 5 6 8 6 10 3 3 0 7 10 9 5 8 9 13 6 14 16 5 10 17 19 14 14 16 16 20 20 20 20 21 20 20 20 21 19 16 16 15 14 14 14 12 11 11 12 11
2 4 6 3 9 10 6 6 5 10 8 11 9 10 8 11 16 11 18 19 7 9 15 18 14 15 16 17 18 20 20 20 20 20 20 21 20 19 17 16 15 14 14 13 12 11 11 11 11
6 6 6 5 8 12 8 8 8 8 7 11 10 10 5 8 14 12 17 16 5 9 15 16 14 16 18 18 18 19 20 20 20 19 19 20 20 19 17 15 14 14 15 13 12 11 11 11 11
5 6 5 8 11 6 7 6 10 9 6 8 12 6 4 8 9 16 21 14 4 8 13 17 13 14 18 19 18 18 19 19 19 19 19 19 19 18 16 14 14 14 13 13 12 11 10 10 9
5 4 7 8 6 4 1 8 6 7 7 11 11 9 11 1 12 22 21 12 5 8 12 16 10 12 15 18 18 18 18 19 18 18 18 19 19 17 16 14 13 14 13 13 12 11 9 9 8
6 5 7 9 4 2 4 9 6 8 10 11 13 15 10 5 19 22 18 14 8 6 9 12 13 12 13 16 17 17 17 17 18 17 17 17 18 17 15 14 13 12 12 12 11 10 9 8 7
9 7 8 4 7 7 4 8 7 10 12 9 16 17 9 8 21 20 16 13 5 6 10 11 16 15 13 13 14 15 16 16 15 16 16 16 16 16 15 13 12 11 10 11 10 9 9 8 7
5 6 6 5 7 5 5 7 6 12 13 11 9 9 13 20 21 19 17 7 8 6 10 13 14 17 17 15 13 14 15 16 16 15 15 15 15 14 14 12 11 11 10 10 10 9 8 7 7
3 7 8 4 6 6 7 11 8 10 14 13 13 15 20 22 20 18 14 15 3 7 9 13 15 16 17 18 16 15 17 16 15 15 13 13 12 14 15 14 14 10 10 10 9 8 7 7 6
5 6 5 5 5 9 12 14 15 10 13 14 15 16 19 20 19 18 17 12 15 5 10 12 15 16 17 13 16 16 15 14 14 15 16 13 14 13 14 13 12 11 10 9 8 8 7 9 8
1 5 2 3 5 9 14 14 13 13 12 13 17 20 19 19 17 18 17 16 14 17 7 13 11 15 17 14 11 10 10 10 11 16 14 14 12 11 11 9 9 10 11 9 10 9 9 11 5
5 1 3 4 7 10 11 14 12 9 13 11 14 15 20 18 18 18 19 17 16 15 16 9 15 12 16 12 12 13 12 12 11 14 16 11 9 11 11 9 11 11 10 10 10 7 7 5 6
0 1 4 7 10 9 11 11 13 17 9 13 15 15 16 18 18 17 18 18 18 16 19 11 13 13 13 16 13 13 13 12 13 13 16 13 12 11 11 10 10 10 10 10 8 7 6 7 6
4 7 9 6 7 11 12 14 12 12 14 16 16 17 16 17 18 19 17 18 18 17 16 19 14 15 16 18 16 13 13 14 13 13 14 17 13 10 11 10 10 9 9 8 8 8 7 6 5
5 10 6 4 5 12 10 14 8 9 14 18 19 18 18 17 18 19 18 17 17 15 17 16 19 17 19 20 18 14 13 14 14 13 16 18 15 13 12 11 11 10 8 10 8 6 6 6 5
4 6 7 2 10 2 5 12 12 14 17 19 20 19 19 20 19 18 20 19 18 17 19 18 20 17 19 19 16 15 15 14 14 14 14 19 18 15 13 11 11 11 10 10 9 8 8 7 6
8 9 13 9 6 7 7 16 14 18 18 17 15 17 19 19 19 16 18 20 18 19 20 20 19 22 20 19 17 17 17 15 14 14 14 19 18 17 13 11 11 10 10 10 9 8 8 7 6
11 14 10 13 7 15 14 16 17 15 14 12 12 15 17 19 18 19 19 18 19 18 17 17 16 17 18 16 16 13 13 14 15 15 15 19 16 18 15 12 11 12 11 10 9 9 8 7 7
9 10 13 14 11 13 14 18 16 12 8 7 10 13 14 16 18 18 17 17 19 18 18 16 17 18 18 13 13 13 14 13 16 14 18 19 17 17 15 12 13 12 11 10 10 9 10 8 8
7 12 14 11 5 17 15 21 11 3 3 7 10 12 14 17 18 18 17 17 18 20 19 18 18 18 18 13 13 12 13 14 16 15 16 18 20 19 17 14 13 13 11 11 13 12 10 9 9
7 12 12 18 19 21 9 12 9 8 4 4 7 10 14 17 20 18 19 17 17 19 20 19 20 20 20 19 12 10 12 11 13 14 15 18 21 21 19 17 10 11 10 12 12 13 13 11 10
11 7 13 17 15 9 8 6 7 8 6 2 9 12 16 18 19 19 18 17 17 18 20 21 20 21 19 19 15 17 13 12 12 15 14 13 18 20 19 18 17 15 13 11 11 11 11 10 11
10 14 16 16 14 11 6 8 2 15 6 3 9 13 17 19 19 20 19 18 17 17 18 21 22 22 17 17 18 14 15 12 12 12 13 16 16 20 21 19 18 15 13 12 13 13 13 12 11
10 14 14 6 8 8 5 7 9 1 3 5 7 11 15 20 22 20 19 17 16 17 18 19 23 20 19 18 20 19 19 15 13 15 13 13 11 13 18 19 16 15 14 13 13 13 16 12 11
9 11 4 5 8 6 6 11 11 2 5 3 9 13 18 21 21 21 20 18 16 17 17 19 22 20 16 22 19 20 20 18 20 16 15 17 15 14 16 17 17 15 14 13 12 13 13 14 12
4 7 3 6 6 13 17 9 5 4 5 3 9 15 21 21 20 21 20 18 17 16 17 20 20 19 18 17 18 18 21 13 13 15 11 14 14 14 15 15 16 17 17 15 13 12 12 13 12
7 4 6 6 14 8 8 7 12 8 8 4 12 18 21 20 21 23 21 17 19 18 16 17 19 20 15 12 15 17 16 19 17 13 13 11 12 13 15 19 17 16 15 16 13 12 13 12 13
7 5 4 5 7 8 7 14 7 8 7 11 16 22 20 21 22 21 20 19 18 18 17 16 16 19 15 11 10 12 14 15 13 12 14 16 15 16 18 20 19 17 17 17 16 13 13 14 12
8 8 4 4 7 6 9 3 3 6 5 13 17 20 21 21 21 19 20 19 21 19 18 17 16 18 17 9 10 10 12 12 14 16 9 10 14 17 18 17 17 19 19 17 15 15 15 17 15
10 10 7 4 3 8 8 14 3 6 5 9 14 17 19 19 20 20 21 20 20 20 19 18 15 17 16 15 9 9 10 12 12 12 18 29 17 17 15 16 18 18 17 16 15 14 13 16 17
Wind_Direction
241 232 249 237 242 235 253 140 327 232 57 7 335 347 332 310 3 27 17 8 319 175 159 170 166 164 155 160 158 157 158 159 160 160 157 153 148 150 149 141 138 141 140 141 141 135 133 133 135
269 218 225 253 251 235 232 83 234 51 355 342 331 341 6 76 27 25 358 349 313 193 167 184 162 161 154 159 161 159 161 162 162 162 158 154 152 153 149 144 145 148 147 147 148 143 142 141 143
245 251 257 250 246 252 295 53 36 345 349 355 349 329 10 6 31 359 359 355 317 189 176 177 163 162 156 158 161 161 162 164 162 163 161 156 156 155 152 149 151 153 153 152 153 151 152 150 152
218 194 206 250 243 84 353 8 347 332 31 355 347 313 48 70 25 356 343 354 317 213 186 137 162 167 160 156 161 162 162 163 163 164 162 158 156 155 155 156 156 156 156 158 159 160 159 156 159
221 247 236 238 256 27 350 10 338 354 355 332 332 334 310 161 353 354 340 351 321 221 188 154 166 169 166 159 162 161 162 160 165 164 164 160 157 157 160 162 161 160 160 162 165 164 160 154 160
204 281 236 236 195 130 87 351 5 358 338 329 338 322 302 100 9 347 345 347 331 212 205 166 168 169 168 162 161 162 161 162 163 165 165 164 159 159 163 164 165 165 164 162 165 166 158 155 159
275 245 274 297 277 258 90 349 7 333 324 338 323 315 285 345 344 333 333 341 338 241 200 183 184 179 164 164 162 165 161 161 164 164 165 165 162 160 162 166 166 167 164 160 163 168 163 157 163
281 271 254 224 264 297 93 323 341 326 315 314 323 300 314 330 322 321 327 329 326 232 215 199 196 188 187 177 167 169 165 161 163 165 167 164 162 164 163 161 169 168 166 162 162 168 166 159 172
262 247 257 296 280 339 329 317 313 324 288 302 298 292 307 312 312 314 319 318 262 304 229 212 195 194 196 188 175 173 172 165 162 164 166 163 183 180 169 189 152 173 169 167 163 167 171 169 178
278 268 35 26 323 308 313 315 313 315 307 302 318 315 317 315 319 311 308 313 322 272 267 233 211 201 199 198 181 196 189 190 189 188 183 195 192 187 186 170 160 176 173 165 166 172 182 206 199
62 338 37 304 349 314 308 307 336 308 303 341 318 318 320 315 312 309 307 310 308 312 232 254 219 208 205 201 187 188 191 195 194 196 191 209 190 186 196 179 185 190 184 190 187 184 213 211 230
234 10 322 339 324 308 313 316 305 315 316 315 313 320 313 313 316 313 311 307 309 310 301 227 248 209 211 205 193 192 191 192 192 192 191 203 196 188 197 195 193 195 184 209 194 198 217 217 223
195 357 285 298 298 309 310 302 316 302 308 315 317 310 303 308 310 310 311 308 298 302 313 229 220 210 211 223 199 201 196 190 193 188 189 197 200 189 198 199 200 193 195 195 198 217 193 209 214
339 297 283 281 286 317 307 311 291 289 319 309 310 306 304 302 301 306 305 311 318 309 304 304 209 208 197 216 219 203 197 183 194 191 189 201 202 186 196 200 210 201 207 203 203 198 198 219 218
302 280 273 215 250 312 341 288 314 349 310 308 305 305 305 297 294 294 300 303 302 308 310 301 282 208 205 208 214 208 196 194 191 192 190 200 203 186 205 198 207 200 190 213 213 188 205 210 203
273 270 301 179 332 281 300 298 327 317 310 304 307 307 304 304 301 295 294 293 296 305 308 304 295 246 205 208 208 211 206 204 193 192 186 194 195 193 203 198 204 194 194 203 200 197 201 206 202
171 307 310 315 238 299 271 301 290 301 304 306 307 312 317 316 310 306 304 298 307 309 304 300 284 278 222 211 208 211 207 207 199 193 190 190 194 194 198 201 200 194 203 200 201 199 207 186 206
309 307 308 297 299 304 295 283 302 301 305 311 333 341 330 329 334 329 317 317 316 310 307 303 290 280 258 218 216 207 207 202 206 199 194 186 194 194 195 198 202 195 204 198 198 195 191 201 196
296 285 291 291 326 302 296 293 301 304 298 352 334 339 332 329 330 330 331 329 322 319 313 305 294 282 272 219 219 201 204 199 209 204 198 187 196 190 192 200 193 197 205 198 186 188 182 196 187
276 290 298 303 267 315 299 296 289 79 32 355 350 352 343 335 333 331 326 331 328 324 317 312 302 287 275 224 206 203 198 203 212 205 196 194 191 192 192 203 187 190 195 191 188 191 184 198 188
293 296 312 308 316 282 299 262 144 150 237 326 347 350 352 346 337 332 326 325 327 323 319 317 311 296 284 223 207 203 196 205 211 207 197 199 195 194 194 196 189 178 201 188 192 192 198 191 191
295 4 305 302 313 314 345 289 253 141 285 283 338 346 342 337 333 331 326 324 326 324 323 326 317 301 280 222 205 211 200 191 195 212 203 195 202 199 193 192 195 190 193 194 190 193 197 212 192
300 318 299 292 281 294 192 248 189 209 227 309 333 342 341 338 335 331 331 321 329 326 327 324 323 316 280 230 201 202 212 205 195 203 200 205 197 205 199 193 190 192 197 196 191 191 203 200 195
299 289 281 270 257 248 221 275 291 328 317 277 332 339 339 335 329 330 331 322 334 326 327 331 323 327 329 277 207 201 208 207 213 195 194 206 198 198 205 194 192 191 198 191 193 190 194 204 212
298 324 321 269 206 264 145 266 265 96 186 309 329 330 333 333 326 329 331 330 329 336 332 330 325 330 340 333 227 212 211 205 214 208 200 194 199 189 196 189 191 190 199 197 194 193 194 205 201
331 326 3 289 298 308 302 252 77 73 156 284 328 331 329 331 327 326 329 329 333 337 334 317 324 326 338 341 334 237 211 211 212 220 212 205 204 192 177 181 192 182 198 202 196 196 207 200 209
117 249 15 292 255 263 234 230 214 156 227 268 323 318 332 325 324 322 326 332 331 329 328 325 324 320 332 342 334 335 218 210 207 207 198 220 211 181 176 182 187 177 194 202 193 210 194 205 205
270 48 209 202 283 294 278 295 286 197 268 332 318 331 330 322 322 322 323 332 328 327 324 324 323 318 323 328 333 335 314 245 214 225 224 208 191 198 173 183 179 178 185 196 198 201 200 205 202
178 203 225 286 270 283 306 305 65 330 335 324 317 331 325 327 321 317 327 327 330 327 325 321 323 317 316 332 328 329 328 318 238 206 218 258 200 196 174 174 181 186 185 190 197 204 195 201 204
252 257 237 230 214 249 284 278 29 152 290 313 334 316 329 326 323 328 321 328 331 327 326 320 320 316 314 321 325 323 331 325 315 202 185 237 210 195 175 174 182 184 183 182 194 198 198 200 209